Rolla, ND

1:06 AM CST on February 13, 2016 (GMT -0600)
Rolla

Weather History for K06D - March, 2013

Change the Weather History Date:

Sunday, March 10, 2013

  Actual Average (KRUG) Record (KRUG)
Temperature  
Mean Temperature 11 °F -  
Max Temperature 21 °F 33 °F 57 °F (1990)
Min Temperature 1 °F 11 °F -24 °F (1979)
Degree Days  
Heating Degree Days 54    
Moisture  
Dew Point 7 °F    
Average Humidity 89    
Maximum Humidity 93    
Minimum Humidity 63    
Precipitation  
Precipitation 0.04 in - - ()
Sea Level Pressure  
Sea Level Pressure 30.16 in    
Wind  
Wind Speed 15 mph (NW)    
Max Wind Speed 23 mph    
Max Gust Speed 28 mph    
Visibility 10 miles    
Events Rain , Snow    
Averages and records for this station are not official NWS values.
T = Trace of Precipitation, MM = Missing Value Source: NWS Daily Summary

Daily Weather History Graph

Daily Weather History Graph

Search for Another Location

Airport or City:

Trip Planner

Search our weather history database for the weather conditions in past years. The results will help you decide how hot, cold, wet, or windy it might be!

Date:

Astronomy

Mar. 10, 2013 Rise Set
Actual Time 8:01 AM CDT 7:36 PM CDT
Civil Twilight 7:30 AM CDT 8:08 PM CDT
Nautical Twilight 6:53 AM CDT 8:44 PM CDT
Astronomical Twilight 6:16 AM CDT 9:22 PM CDT
Moon 7:05 AM CDT (3/10) 6:45 PM CDT (3/10)
Length of Visible Light 12h 37m
Length of Day
11h 34m
Waning Crescent, 2% of the Moon is Illuminated
Mar 10
Waning Crescent
Mar 11
New
Mar 19
First Quarter
Mar 27
Full
Apr 2
Last Quarter

Hourly Weather History & Observations

Time (CDT) Temp. Windchill Dew Point Humidity Pressure Visibility Wind Dir Wind Speed Gust Speed Precip Events Conditions
12:15 AM 8.6 °F -11.4 °F 6.8 °F 92% 30.09 in 10.0 mi NNW 21.9 mph - N/A Rain Light Freezing Rain
12:35 AM 8.6 °F -11.0 °F 6.8 °F 92% 30.10 in 10.0 mi NNW 20.7 mph - N/A Rain Light Freezing Rain
12:55 AM 8.6 °F -11.4 °F 5.0 °F 85% 30.09 in 10.0 mi NNW 21.9 mph - N/A Rain Light Freezing Rain
1:15 AM 6.8 °F -13.4 °F 5.0 °F 92% 30.10 in 10.0 mi NNW 20.7 mph - N/A Rain Light Freezing Rain
1:35 AM 6.8 °F -12.9 °F 5.0 °F 92% 30.10 in 10.0 mi NNW 19.6 mph - N/A Rain Light Freezing Rain
1:55 AM 8.6 °F -11.4 °F 6.8 °F 92% 30.11 in 9.0 mi NNW 21.9 mph - N/A Rain Light Freezing Rain
3:15 AM 8.6 °F -11.4 °F 6.8 °F 92% 30.11 in 10.0 mi NNW 21.9 mph - N/A Rain Light Freezing Rain
3:35 AM 8.6 °F -11.4 °F 6.8 °F 92% 30.12 in 10.0 mi NNW 21.9 mph - N/A Rain Light Freezing Rain
3:55 AM 8.6 °F -11.4 °F 6.8 °F 92% 30.12 in 10.0 mi NNW 21.9 mph - N/A Rain Light Freezing Rain
4:15 AM 8.6 °F -11.4 °F 6.8 °F 92% 30.13 in 10.0 mi NNW 21.9 mph 27.6 mph N/A Rain Light Freezing Rain
4:35 AM 6.8 °F -13.8 °F 5.0 °F 92% 30.13 in 10.0 mi NNW 21.9 mph - N/A Rain Light Freezing Rain
4:55 AM 6.8 °F -14.3 °F 5.0 °F 92% 30.13 in 10.0 mi NNW 23.0 mph - N/A Rain Light Freezing Rain
5:15 AM 6.8 °F -14.3 °F 5.0 °F 92% 30.14 in 8.0 mi NNW 23.0 mph 27.6 mph N/A Rain Light Freezing Rain
5:35 AM 6.8 °F -13.8 °F 5.0 °F 92% 30.14 in 8.0 mi NNW 21.9 mph - N/A Rain Light Freezing Rain
5:55 AM 6.8 °F -13.4 °F 5.0 °F 92% 30.15 in 9.0 mi NNW 20.7 mph - N/A Rain Light Freezing Rain
6:15 AM 6.8 °F -12.9 °F 5.0 °F 92% 30.16 in 10.0 mi NNW 19.6 mph 25.3 mph N/A Snow Light Snow
7:15 AM 5.0 °F -15.2 °F 3.2 °F 92% 30.19 in 10.0 mi NNW 19.6 mph - N/A Rain Light Freezing Rain
7:35 AM 5.0 °F -13.6 °F 3.2 °F 92% 30.19 in 10.0 mi NNW 16.1 mph - N/A Rain Light Freezing Rain
7:55 AM 6.8 °F -11.3 °F 5.0 °F 92% 30.20 in 10.0 mi NNW 16.1 mph - N/A Snow Light Snow
8:15 AM 6.8 °F -10.0 °F 5.0 °F 92% 30.22 in 10.0 mi NNW 13.8 mph - N/A Snow Light Snow
8:35 AM 6.8 °F -9.3 °F 5.0 °F 92% 30.22 in 10.0 mi NNW 12.7 mph - 0.01 in Snow Light Snow
8:55 AM 6.8 °F -7.8 °F 5.0 °F 92% 30.22 in 10.0 mi NNW 10.4 mph - 0.01 in Rain Light Freezing Rain
9:15 AM 6.8 °F -10.7 °F 5.0 °F 92% 30.23 in 10.0 mi NNW 15.0 mph - N/A Snow Light Snow
9:35 AM 8.6 °F -7.0 °F 5.0 °F 85% 30.24 in 8.0 mi NW 12.7 mph - 0.02 in Snow Light Snow
9:55 AM 8.6 °F -6.3 °F 5.0 °F 85% 30.24 in 10.0 mi NW 11.5 mph - 0.03 in Rain Light Freezing Rain
10:15 AM 8.6 °F -5.5 °F 5.0 °F 85% 30.25 in 10.0 mi NNW 10.4 mph - N/A Rain Light Freezing Rain
10:35 AM 10.4 °F -3.3 °F 6.8 °F 85% 30.25 in 10.0 mi NNW 10.4 mph - N/A Rain Light Freezing Rain
10:55 AM 10.4 °F -4.8 °F 6.8 °F 85% 30.26 in 10.0 mi NNW 12.7 mph - N/A Rain Light Freezing Rain
11:15 AM 12.2 °F -0.2 °F 8.6 °F 85% 30.26 in 10.0 mi NNW 9.2 mph - N/A Rain Light Freezing Rain
11:35 AM 12.2 °F -1.0 °F 8.6 °F 85% 30.26 in 10.0 mi North 10.4 mph - N/A Rain Light Freezing Rain
11:55 AM 12.2 °F -0.2 °F 8.6 °F 85% 30.26 in 10.0 mi NNW 9.2 mph - N/A Rain Light Freezing Rain
12:15 PM 14.0 °F 2.9 °F 8.6 °F 79% 30.25 in 10.0 mi NNW 8.1 mph - N/A Rain Light Freezing Rain
12:35 PM 12.2 °F -0.2 °F 10.4 °F 92% 30.25 in 10.0 mi North 9.2 mph - N/A Rain Light Freezing Rain
12:55 PM 12.2 °F 2.9 °F 10.4 °F 92% 30.24 in 10.0 mi North 5.8 mph - N/A Rain Light Freezing Rain
1:15 PM 12.2 °F 2.9 °F 10.4 °F 92% 30.23 in 10.0 mi North 5.8 mph - N/A Rain Light Freezing Rain
1:35 PM 14.0 °F 2.9 °F 12.2 °F 93% 30.24 in 10.0 mi North 8.1 mph - N/A Rain Light Freezing Rain
1:55 PM 15.8 °F 5.1 °F 12.2 °F 86% 30.24 in 10.0 mi North 8.1 mph - N/A Rain Light Freezing Rain
2:15 PM 15.8 °F 5.1 °F 14.0 °F 93% 30.22 in 10.0 mi North 8.1 mph - N/A Rain Light Freezing Rain
2:35 PM 15.8 °F 3.4 °F 14.0 °F 93% 30.20 in 10.0 mi NNE 10.4 mph - N/A Rain Light Freezing Rain
2:55 PM 15.8 °F 3.4 °F 14.0 °F 93% 30.20 in 5.0 mi North 10.4 mph - N/A Rain Light Freezing Rain
3:15 PM 15.8 °F 3.4 °F 14.0 °F 93% 30.19 in 10.0 mi North 10.4 mph - N/A Rain Light Freezing Rain
3:35 PM 15.8 °F 4.2 °F 14.0 °F 93% 30.18 in 10.0 mi North 9.2 mph - N/A Rain Light Freezing Rain
3:55 PM 15.8 °F 5.1 °F 12.2 °F 86% 30.17 in 10.0 mi NNE 8.1 mph - N/A Rain Light Freezing Rain
4:15 PM 15.8 °F 7.2 °F 12.2 °F 86% 30.16 in 10.0 mi North 5.8 mph - N/A Rain Light Freezing Rain
4:35 PM 21.2 °F 14.9 °F 10.4 °F 63% 30.16 in 10.0 mi NNW 4.6 mph - N/A Rain Light Freezing Rain
4:55 PM 17.6 °F 9.3 °F 14.0 °F 86% 30.16 in 10.0 mi SW 5.8 mph - N/A Rain Light Freezing Rain
5:15 PM 15.8 °F 6.1 °F 10.4 °F 79% 30.15 in 10.0 mi SSW 6.9 mph - N/A Rain Light Freezing Rain
5:35 PM 14.0 °F 2.9 °F 10.4 °F 86% 30.15 in 10.0 mi SSW 8.1 mph - N/A Rain Light Freezing Rain
5:55 PM 14.0 °F 5.1 °F 10.4 °F 86% 30.15 in 10.0 mi SSW 5.8 mph - N/A Rain Light Freezing Rain
6:15 PM 12.2 °F 1.7 °F 8.6 °F 85% 30.14 in 10.0 mi SSW 6.9 mph - N/A Rain Light Freezing Rain
6:35 PM 10.4 °F 0.8 °F 8.6 °F 92% 30.14 in 10.0 mi SW 5.8 mph - N/A Rain Light Freezing Rain
6:55 PM 10.4 °F -1.5 °F 6.8 °F 85% 30.14 in 10.0 mi South 8.1 mph - N/A Rain Light Freezing Rain
7:15 PM 8.6 °F -3.7 °F 6.8 °F 92% 30.14 in 10.0 mi SSW 8.1 mph - N/A Rain Light Freezing Rain
7:35 PM 6.8 °F -4.8 °F 5.0 °F 92% 30.13 in 10.0 mi SSW 6.9 mph - N/A Snow Light Snow
7:55 PM 5.0 °F -6.9 °F 1.4 °F 85% 30.13 in 10.0 mi WSW 6.9 mph - N/A Rain Light Freezing Rain
8:15 PM 3.2 °F -7.8 °F -0.4 °F 85% 30.13 in 10.0 mi SW 5.8 mph - N/A Rain Light Freezing Rain
8:35 PM 3.2 °F -6.2 °F -0.4 °F 85% 30.12 in 10.0 mi SW 4.6 mph - N/A Rain Light Freezing Rain
8:55 PM 5.0 °F -4.1 °F 1.4 °F 85% 30.11 in 10.0 mi SSW 4.6 mph - N/A Rain Light Freezing Rain
9:15 PM 1.4 °F -8.3 °F -0.4 °F 92% 30.10 in 10.0 mi SSW 4.6 mph - N/A Rain Light Freezing Rain
9:35 PM 3.2 °F -7.8 °F 1.4 °F 92% 30.10 in 10.0 mi SW 5.8 mph - N/A Rain Light Freezing Rain
9:55 PM 3.2 °F -9.1 °F 1.4 °F 92% 30.09 in 10.0 mi South 6.9 mph - N/A Rain Light Freezing Rain
10:15 PM 6.8 °F -4.8 °F 5.0 °F 92% 30.09 in 10.0 mi SW 6.9 mph - N/A Rain Light Freezing Rain
10:35 PM 8.6 °F -3.7 °F 6.8 °F 92% 30.09 in 10.0 mi SW 8.1 mph - N/A Rain Light Freezing Rain
10:55 PM 8.6 °F -3.7 °F 6.8 °F 92% 30.08 in 10.0 mi SSW 8.1 mph - N/A Rain Light Freezing Rain
11:15 PM 10.4 °F -1.5 °F 8.6 °F 92% 30.06 in 10.0 mi SW 8.1 mph - N/A Rain Light Freezing Rain
11:35 PM 10.4 °F -2.4 °F 8.6 °F 92% 30.06 in 10.0 mi SW 9.2 mph - N/A Rain Light Freezing Rain
11:55 PM 10.4 °F -1.5 °F 8.6 °F 92% 30.04 in 10.0 mi SW 8.1 mph - N/A Rain Light Freezing Rain
12:15 AM 10.4 °F -0.4 °F 8.6 °F 92% 30.03 in 10.0 mi SW 6.9 mph - N/A Rain Light Freezing Rain
12:35 AM 12.2 °F 1.7 °F 10.4 °F 92% 30.01 in 10.0 mi SW 6.9 mph - N/A Rain Light Freezing Rain
12:55 AM 12.2 °F 0.7 °F 10.4 °F 92% 30.00 in 10.0 mi SW 8.1 mph - N/A Rain Light Freezing Rain